CHH1069 ZGSD-ZGSD

Flight info

Callsign CHH1069
Flight time 0h 14m
Altitude 2000
Route LOCAL
Aircraft A359/H-SDE2E3GHIJ3J4J5LM1ORWXY/LB1D1

Departure

Time 2026-04-20 12:20
Airport Zhuhai Jinwan Airport (ZGSD)

Arrival

Time 2026-04-20 12:34
Airport Zhuhai Jinwan Airport (ZGSD)
Time Latitude Longitude Altitude Speed Heading
2026-04-20 12:02 22.02069 113.38500 30 ft 0 kts 224°
2026-04-20 12:13 22.02052 113.38483 26 ft 11 kts 224°
2026-04-20 12:13 22.02002 113.38455 34 ft 6 kts 171°
2026-04-20 12:13 22.01952 113.38488 34 ft 10 kts 137°
2026-04-20 12:13 22.01891 113.38553 34 ft 14 kts 135°
2026-04-20 12:14 22.01847 113.38644 34 ft 14 kts 75°
2026-04-20 12:14 22.01890 113.38704 34 ft 16 kts 45°
2026-04-20 12:14 22.02017 113.38839 33 ft 22 kts 44°
2026-04-20 12:14 22.02034 113.38923 33 ft 13 kts 126°
2026-04-20 12:15 22.02029 113.38929 33 ft 0 kts 127°
2026-04-20 12:18 22.02028 113.38932 33 ft 2 kts 127°
2026-04-20 12:18 22.02009 113.38958 33 ft 7 kts 127°
2026-04-20 12:18 22.01956 113.38997 32 ft 10 kts 172°
2026-04-20 12:18 22.01893 113.38961 32 ft 11 kts 227°
2026-04-20 12:19 22.01834 113.38898 34 ft 14 kts 225°
2026-04-20 12:19 22.01754 113.38814 34 ft 23 kts 224°
2026-04-20 12:19 22.01444 113.38485 34 ft 114 kts 225°
2026-04-20 12:19 22.00673 113.37655 280 ft 184 kts 223°
2026-04-20 12:20 21.99711 113.36658 1052 ft 192 kts 221°
2026-04-20 12:20 21.98860 113.35732 1679 ft 165 kts 224°
2026-04-20 12:20 21.98040 113.34831 1968 ft 164 kts 224°
2026-04-20 12:20 21.97243 113.34003 2007 ft 154 kts 216°
2026-04-20 12:21 21.96249 113.33719 2013 ft 150 kts 172°
2026-04-20 12:21 21.95385 113.34320 2006 ft 155 kts 127°
2026-04-20 12:21 21.95183 113.35454 2016 ft 165 kts 82°
2026-04-20 12:21 21.95709 113.36555 2019 ft 169 kts 54°
2026-04-20 12:22 21.96511 113.37494 2009 ft 172 kts 47°
2026-04-20 12:22 21.97369 113.38401 2008 ft 173 kts 46°
2026-04-20 12:22 21.98236 113.39304 2013 ft 173 kts 46°
2026-04-20 12:22 21.99105 113.40204 2006 ft 172 kts 47°
2026-04-20 12:23 21.99967 113.41096 2004 ft 172 kts 47°
2026-04-20 12:23 22.00822 113.41982 2011 ft 172 kts 47°
2026-04-20 12:23 22.01688 113.42881 2007 ft 172 kts 47°
2026-04-20 12:23 22.02548 113.43770 2009 ft 170 kts 47°
2026-04-20 12:24 22.03415 113.44637 2045 ft 170 kts 46°
2026-04-20 12:24 22.04493 113.45155 2116 ft 176 kts
2026-04-20 12:24 22.05697 113.45004 2189 ft 175 kts 338°
2026-04-20 12:24 22.06699 113.44280 2278 ft 175 kts 315°
2026-04-20 12:25 22.07420 113.43280 2237 ft 167 kts 285°
2026-04-20 12:25 22.07274 113.42209 2149 ft 135 kts 218°
2026-04-20 12:25 22.06427 113.41819 1722 ft 141 kts 194°
2026-04-20 12:25 22.05471 113.41553 1356 ft 143 kts 193°
2026-04-20 12:26 22.04553 113.41183 1021 ft 140 kts 205°
2026-04-20 12:26 22.03722 113.40638 651 ft 140 kts 211°
2026-04-20 12:26 22.02976 113.40010 403 ft 133 kts 220°
2026-04-20 12:26 22.02288 113.39347 164 ft 130 kts 221°
2026-04-20 12:27 22.01645 113.38701 36 ft 122 kts 224°
2026-04-20 12:27 22.01036 113.38056 102 ft 144 kts 224°
2026-04-20 12:27 22.00186 113.37156 715 ft 178 kts 223°
2026-04-20 12:27 21.99344 113.36256 1461 ft 162 kts 221°
2026-04-20 12:28 21.98576 113.35432 1896 ft 152 kts 223°
2026-04-20 12:28 21.97788 113.34683 1996 ft 152 kts 210°
2026-04-20 12:28 21.96763 113.34542 2009 ft 153 kts 165°
2026-04-20 12:28 21.95967 113.35236 2012 ft 158 kts 121°
2026-04-20 12:29 21.95852 113.36407 2013 ft 166 kts 78°
2026-04-20 12:29 21.96439 113.37490 2017 ft 170 kts 52°
2026-04-20 12:29 21.97253 113.38423 2013 ft 172 kts 47°
2026-04-20 12:29 21.98105 113.39321 2013 ft 172 kts 46°
2026-04-20 12:30 21.98967 113.40216 2006 ft 171 kts 46°
2026-04-20 12:30 21.99828 113.41107 2008 ft 171 kts 47°
2026-04-20 12:30 22.00684 113.41994 2024 ft 171 kts 47°
2026-04-20 12:30 22.01540 113.42885 2049 ft 172 kts 47°
2026-04-20 12:31 22.02391 113.43760 2065 ft 169 kts 46°
2026-04-20 12:31 22.03244 113.44594 2084 ft 157 kts 46°
2026-04-20 12:31 22.04228 113.45032 1994 ft 154 kts
2026-04-20 12:31 22.05182 113.44626 1825 ft 149 kts 313°
2026-04-20 12:32 22.05742 113.43715 1550 ft 145 kts 277°
2026-04-20 12:32 22.05479 113.42768 1188 ft 135 kts 219°
2026-04-20 12:32 22.04795 113.42058 841 ft 136 kts 223°
2026-04-20 12:32 22.04154 113.41362 568 ft 131 kts 222°
2026-04-20 12:33 22.03517 113.40679 373 ft 124 kts 222°
2026-04-20 12:33 22.02905 113.40022 222 ft 124 kts 222°
2026-04-20 12:33 22.02284 113.39365 169 ft 128 kts 221°
2026-04-20 12:33 22.01637 113.38679 45 ft 128 kts 221°
2026-04-20 12:34 22.01051 113.38068 33 ft 98 kts 224°
2026-04-20 12:34 22.00757 113.37754 34 ft 37 kts 224°
2026-04-20 12:34 22.00576 113.37558 36 ft 37 kts 229°
2026-04-20 12:34 22.00447 113.37311 34 ft 39 kts 254°
2026-04-20 12:35 22.00486 113.37229 34 ft 9 kts 16°
2026-04-20 12:35 22.00542 113.37274 34 ft 12 kts 42°
2026-04-20 12:35 22.00614 113.37349 34 ft 17 kts 45°
2026-04-20 12:35 22.00707 113.37448 35 ft 21 kts 45°
2026-04-20 12:36 22.00821 113.37571 35 ft 25 kts 44°
2026-04-20 12:36 22.00954 113.37710 34 ft 28 kts 44°
2026-04-20 12:36 22.01104 113.37869 34 ft 32 kts 45°
2026-04-20 12:36 22.01266 113.38042 34 ft 34 kts 45°
2026-04-20 12:37 22.01504 113.38300 34 ft 69 kts 45°
2026-04-20 12:37 22.01790 113.38594 34 ft 23 kts 33°
2026-04-20 12:37 22.01884 113.38559 34 ft 26 kts 315°
2026-04-20 12:37 22.01971 113.38525 34 ft 7 kts 68°
2026-04-20 12:38 22.01992 113.38554 34 ft 0 kts 46°